DW4909 Weather Reports


time (UTC)temp
C
wind
direction
speed
KPH
gust
KPH
rain 1hr
cm
rain 24hr
cm
rain mn
cm
humidity
%
barometer
mb
20260906071555 20 328 0.0 1.6 0.00 0.23 0.00 72 1010.2
20260906070051 20 328 0.0 4.8 0.00 0.23 0.00 72 1010.3
20260906064547 20 347 0.0 0.0 0.00 0.23 0.00 72 1010.5
20260906063043 20 347 0.0 0.0 0.00 0.23 0.00 71 1010.8
20260906061542 20 347 0.0 0.0 0.00 0.23 0.00 72 1010.9
20260906060047 20 347 0.0 0.0 0.00 0.23 0.00 71 1011.1
20260906054536 20 347 0.0 0.0 0.00 0.23 0.00 71 1011.2
20260906053034 20 347 0.0 0.0 0.00 0.23 0.00 71 1011.5
20260906051532 20 347 0.0 0.0 0.00 0.23 0.00 71 1011.4
20260906050030 20 347 0.0 0.0 0.00 0.23 0.00 71 1011.4
20260906044528 20 347 0.0 0.0 0.00 0.23 0.00 71 1011.5
20260906043023 20 347 0.0 0.0 0.00 0.23 0.00 71 1011.7
20260906041528 20 347 0.0 0.0 0.00 0.23 0.00 71 1012.0
20260906040018 20 347 0.0 0.0 0.00 0.23 0.00 71 1011.8
20260906034524 20 347 0.0 0.0 0.00 0.23 0.23 71 1011.6
20260906033017 20 347 0.0 0.0 0.00 0.23 0.23 71 1011.7
20260906031510 20 347 0.0 0.0 0.00 0.23 0.23 71 1011.7
20260906030009 20 346 0.0 0.0 0.00 0.23 0.23 71 1011.7
20260906024505 20 158 0.0 0.0 0.00 0.23 0.23 71 1011.5
20260906023003 20 158 0.0 0.0 0.00 0.23 0.23 71 1011.5
20260906021603 21 158 0.0 0.0 0.00 0.23 0.23 71 1011.4
20260906020058 21 340 0.0 0.0 0.00 0.23 0.23 71 1011.4
20260906014605 21 340 0.0 0.0 0.00 0.23 0.23 70 1011.4
20260906013054 21 340 0.0 0.0 0.00 0.23 0.23 70 1011.4
20260906011655 21 340 0.0 0.0 0.00 0.23 0.23 70 1011.2
20260906010049 21 340 0.0 0.0 0.00 0.23 0.23 69 1011.3
20260906004547 21 340 0.0 0.0 0.00 0.23 0.23 68 1011.2
20260906003044 21 340 0.0 0.0 0.00 0.23 0.23 66 1011.2
20260906001543 22 340 0.0 0.0 0.00 0.23 0.23 65 1011.2
20260906000041 22 340 0.0 0.0 0.00 0.23 0.23 65 1011.2
20260905234538 22 88 0.0 0.0 0.00 0.23 0.23 65 1011.5
20260905233053 23 61 0.0 0.0 0.00 0.23 0.23 65 1011.1
20260905231548 23 60 0.0 0.0 0.00 0.23 0.23 64 1010.5
20260905230033 23 114 0.0 0.0 0.00 0.23 0.23 64 1010.4
20260905224531 23 115 0.0 0.0 0.00 0.23 0.23 63 1010.4
20260905223030 23 141 0.0 0.0 0.00 0.23 0.23 65 1010.4
20260905221535 22 117 0.0 4.8 0.03 0.23 0.23 65 1009.8
20260905220025 22 323 1.6 6.4 0.03 0.23 0.23 67 1009.6
20260905214523 22 278 0.0 0.0 0.03 0.23 0.23 69 1009.2
20260905213029 22 281 0.0 0.0 0.00 0.20 0.20 67 1009.4
20260905211520 21 280 0.0 1.6 0.20 0.20 0.20 62 1009.6
20260905210018 22 322 0.0 6.4 0.20 0.20 0.20 60 1009.8
20260905204510 22 153 0.0 3.2 0.20 0.20 0.20 62 1010.5
20260905203008 23 299 0.0 9.7 0.20 0.20 0.20 63 1010.5
20260905201506 30 1 16.1 40.2 0.00 0.00 0.00 50 1010.7
20260905200004 35 281 0.0 8.0 0.00 0.00 0.00 42 1009.4
20260905194600 36 302 0.0 8.0 0.00 0.00 0.00 38 1009.4
20260905193057 37 338 0.0 8.0 0.00 0.00 0.00 34 1009.8
20260905191557 37 346 1.6 8.0 0.00 0.00 0.00 35 1009.9
20260905190107 36 337 3.2 9.7 0.00 0.00 0.00 37 1009.8
20260905184604 36 336 1.6 4.8 0.00 0.00 0.00 37 1010.1
20260905183045 36 352 4.8 11.3 0.00 0.00 0.00 36 1010.4
20260905181540 36 345 3.2 8.0 0.00 0.00 0.00 34 1010.5
20260905180036 36 264 0.0 8.0 0.00 0.00 0.00 40 1010.9
20260905174541 35 73 0.0 4.8 0.00 0.00 0.00 42 1011.0
20260905173035 35 320 3.2 14.5 0.00 0.00 0.00 42 1011.6
20260905171524 35 338 0.0 9.7 0.00 0.00 0.00 43 1011.9
20260905170018 35 331 3.2 11.3 0.00 0.00 0.00 43 1012.0
20260905164515 34 266 1.6 8.0 0.00 0.00 0.00 46 1012.1
20260905163014 34 307 0.0 8.0 0.00 0.00 0.00 49 1012.4
20260905161503 34 271 1.6 4.8 0.00 0.00 0.00 46 1012.4
20260905160059 33 136 0.0 9.7 0.00 0.00 0.00 49 1012.7
20260905154554 33 68 0.0 6.4 0.00 0.00 0.00 50 1012.9
20260905153048 32 271 3.2 11.3 0.00 0.00 0.00 51 1012.9
20260905151543 32 130 0.0 6.4 0.00 0.00 0.00 53 1012.9
20260905150038 31 103 1.6 6.4 0.00 0.00 0.00 52 1013.0
20260905144539 31 334 1.6 8.0 0.00 0.00 0.00 54 1013.0
20260905143031 31 83 0.0 6.4 0.00 0.00 0.00 54 1012.9
20260905141522 30 20 3.2 9.7 0.00 0.00 0.00 56 1012.9
20260905140017 29 6 1.6 6.4 0.00 0.00 0.00 57 1013.0
20260905134511 28 345 3.2 6.4 0.00 0.00 0.00 59 1013.3
20260905133007 28 18 3.2 9.7 0.00 0.00 0.00 59 1013.4
20260905131632 27 354 0.0 6.4 0.00 0.00 0.00 62 1013.5
20260905130101 26 290 1.6 9.7 0.00 0.00 0.00 63 1013.5
20260905124553 26 341 0.0 4.8 0.00 0.00 0.00 66 1013.4
20260905123055 25 340 0.0 3.2 0.00 0.00 0.00 68 1013.3
20260905121541 23 348 0.0 3.2 0.00 0.00 0.00 70 1013.3
20260905120039 23 343 0.0 1.6 0.00 0.00 0.00 71 1013.1
20260905114542 23 326 0.0 1.6 0.00 0.00 0.00 71 1012.9
20260905113041 22 118 0.0 0.0 0.00 0.00 0.00 71 1012.7
20260905111545 22 118 0.0 0.0 0.00 0.00 0.00 71 1012.5
20260905110032 22 118 0.0 0.0 0.00 0.00 0.00 71 1012.6
20260905104529 22 118 0.0 0.0 0.00 0.00 0.00 71 1012.3
20260905103031 22 118 0.0 0.0 0.00 0.00 0.00 71 1012.1
20260905101528 22 112 0.0 0.0 0.00 0.00 0.00 70 1012.0
20260905100019 22 112 0.0 1.6 0.00 0.00 0.00 70 1012.0
20260905094515 22 112 0.0 1.6 0.00 0.00 0.00 70 1012.0
20260905093011 22 111 0.0 1.6 0.00 0.00 0.00 70 1012.1
20260905091506 22 77 0.0 1.6 0.00 0.00 0.00 70 1012.1
20260905090003 22 77 0.0 1.6 0.00 0.00 0.00 70 1012.2
20260905084616 22 77 0.0 1.6 0.00 0.00 0.00 70 1012.3
20260905083056 22 77 0.0 0.0 0.00 0.00 0.00 69 1012.3
20260905081557 22 77 0.0 0.0 0.00 0.00 0.00 68 1012.4
20260905080050 22 77 0.0 0.0 0.00 0.00 0.00 68 1012.5
20260905074549 23 77 0.0 0.0 0.00 0.00 0.00 68 1012.6
20260905073047 22 77 0.0 1.6 0.00 0.00 0.00 68 1012.6